[[{"header":{"parameterUnit":"m.s-1","parameterCategory":1,"la1":30.2991,"la2":30.254,"lo1":-89.0895,"lo2":-89.0444,"dy":0.0017,"dx":0.0017,"nx":28,"ny":28,"refTime":"2023-09-23T21:00:00:Z","depth":0,"parameterNumber":2,"parameterNumberName":"U-component_of_WINDS"},"data":[0,0,0,0,0,0,0,0,0,0,0,0,0,0,0,0,0,0,0,0,0,0,0,0,0,0,0,0,0,0,0,0,0,0,0,0,0,0,0,0,0,0,0,0,0,0,0,0,0,0,0,0,0,0,0,0,0,0,0.4647,0.4645,0,0.453,0.4529,0.4527,0.445,0.4449,0.4449,0.4448,0.4328,0.4326,0.4323,0,0,0,0,0,0,0,0,0,0,0,0,0,0.48,0.4797,0.4647,0.4645,0.4644,0.453,0.4528,0.4527,0.445,0.4449,0.4449,0.4448,0.4329,0.4326,0.4323,0,0,0,0,0,0,0,0,0,0,0,0,0,0.4713,0.4797,0.4647,0.4592,0.4586,0.453,0.4528,0.4526,0.445,0.4449,0.4449,0.4448,0.433,0.4326,0.4322,0.4313,0,0,0.431,0.4308,0,0,0,0,0,0,0,0,0.4718,0.4708,0.4601,0.4595,0.4588,0.4504,0.4538,0.4455,0.445,0.4502,0.4448,0.4447,0.4387,0.4378,0.4358,0.4307,0.4302,0.4309,0.4307,0.4305,0.4304,0,0,0,0,0,0,0,0.4724,0.4712,0.46,0.46,0.4592,0.4572,0.4559,0.4522,0.445,0.4497,0.4491,0.4478,0.4383,0.4362,0.4355,0.43,0.4309,0.4306,0.4303,0.4302,0.4231,0.4231,0,0,0,0,0,0,0.4739,0.4718,0.4604,0.4597,0.4653,0.457,0.4555,0.4532,0.445,0.4437,0.4479,0.4475,0.437,0.436,0.435,0.4331,0.4305,0.4301,0.4299,0.423,0.4231,0.4232,0,0,0,0,0,0,0.4743,0.473,0.4609,0.4656,0.4639,0.4568,0.4542,0.453,0.4508,0.4437,0.4423,0.4471,0.4369,0.4356,0.4322,0.4326,0.4299,0.4296,0.423,0.4231,0.4231,0.4294,0,0,0,0,0,0,0.4748,0.4732,0.4728,0.4656,0.4637,0.4583,0.4543,0.4528,0.4502,0.4495,0.4425,0.4413,0.4367,0.4328,0.4318,0.432,0.4293,0.4229,0.423,0.4231,0.4291,0.4297,0.4302,0,0,0,0,0,0.4753,0.4751,0.4729,0.4715,0.4631,0.4584,0.4572,0.452,0.4502,0.4497,0.4451,0.4415,0.4327,0.4325,0.4313,0.4314,0.4228,0.423,0.4231,0.4289,0.4296,0.4302,0,0,0,0,0,0,0.4826,0.4741,0.4715,0.469,0.4644,0.4571,0.4563,0.4529,0.4488,0.4484,0.442,0.4404,0.4376,0.4341,0.4341,0.4298,0.4273,0.4272,0.4322,0.4328,0.4333,0.4341,0.4289,0,0,0,0,0,0.4839,0.4809,0.4736,0.472,0.4699,0.4635,0.4613,0.4576,0.4526,0.4507,0.4458,0.4411,0.4372,0.4348,0.4309,0.4286,0.4268,0.428,0.4285,0.429,0.429,0.4271,0.4275,0.4236,0.4236,0.4236,0,0,0.4866,0.4816,0.4801,0.4734,0.4694,0.4663,0.462,0.4589,0.4565,0.4502,0.4466,0.4429,0.4371,0.4342,0.4327,0.4312,0.4296,0.4292,0.4296,0.4293,0.4273,0.4277,0.428,0.4237,0.4236,0.4236,0,0,0.4898,0.4859,0.484,0.4801,0.4741,0.4698,0.4694,0.4625,0.4597,0.456,0.4511,0.4481,0.4417,0.4377,0.4348,0.4362,0.4327,0.4351,0.4379,0.4362,0.4365,0.4367,0.437,0.4372,0.4351,0.4351,0.4352,0,0.4939,0.4891,0.4834,0.4805,0.4776,0.4718,0.4697,0.4662,0.4593,0.4573,0.4558,0.4474,0.4432,0.439,0.4394,0.4373,0.4364,0.4359,0.4369,0.4371,0.4372,0.4374,0.4375,0.4355,0.4354,0.4354,0.4354,0,0.4942,0.4909,0.4901,0.4834,0.4804,0.478,0.4718,0.4695,0.466,0.4618,0.4579,0.4526,0.4473,0.4461,0.4427,0.4414,0.4407,0.4382,0.4355,0.438,0.438,0.4381,0.4359,0.4358,0.4357,0.4356,0,0,0.5018,0.4919,0.4917,0.4885,0.4814,0.4786,0.4758,0.4706,0.4686,0.464,0.4613,0.4558,0.4533,0.4501,0.4462,0.4448,0.4458,0.4423,0.4421,0.443,0.4438,0.4456,0.4458,0.4435,0.4435,0.4435,0.4442,0,0.5038,0.4984,0.4932,0.4896,0.4863,0.4806,0.4781,0.4734,0.4693,0.4658,0.4614,0.4575,0.4546,0.4526,0.4509,0.4461,0.4459,0.446,0.4408,0.4406,0.4422,0.4458,0.4478,0.4487,0.4442,0.4442,0.4442,0,0.5054,0.501,0.4971,0.49,0.4884,0.4863,0.4809,0.4778,0.4722,0.4693,0.4656,0.4614,0.4579,0.4557,0.4507,0.4509,0.4484,0.4457,0.4456,0.4448,0.4425,0.445,0.4489,0.449,0.4442,0.4442,0.4442,0,0.511,0.5041,0.5008,0.4982,0.49,0.4885,0.485,0.4794,0.4765,0.4718,0.4698,0.4649,0.4621,0.4582,0.4527,0.4517,0.4482,0.4456,0.4455,0.4457,0.445,0.4451,0.4485,0.4437,0.4437,0.4437,0.4437,0,0.5137,0.5115,0.5031,0.5011,0.4984,0.4922,0.4897,0.4856,0.4806,0.4776,0.4724,0.4696,0.4625,0.4589,0.4545,0.4509,0.4497,0.4472,0.446,0.4476,0.4479,0.4458,0.4455,0.4438,0.4438,0.4438,0.4437,0,0.5195,0.5139,0.5098,0.5023,0.5003,0.4986,0.492,0.4898,0.4854,0.4815,0.4803,0.4734,0.4687,0.4628,0.4564,0.4535,0.4502,0.4486,0.4521,0.4514,0.4516,0.4516,0.4536,0.4535,0.4491,0.4491,0.4492,0,0.5216,0.5197,0.5119,0.5094,0.5061,0.5023,0.4992,0.4931,0.4901,0.4835,0.4819,0.4769,0.4725,0.4654,0.4597,0.4547,0.4527,0.4538,0.4519,0.4534,0.4525,0.4526,0.4522,0.4542,0.4543,0.4544,0.4544,0,0.5256,0.5228,0.5187,0.5135,0.5101,0.5057,0.5011,0.4994,0.4922,0.4891,0.4843,0.4809,0.4742,0.4692,0.4634,0.4596,0.4557,0.455,0.4547,0.4562,0.4582,0.4569,0.4532,0.455,0.4549,0.4549,0.4549,0.4548,0.5294,0.5274,0.5215,0.517,0.5128,0.5086,0.506,0.5012,0.4971,0.4911,0.4877,0.4829,0.4771,0.4689,0.4653,0.4613,0.4599,0.4595,0.4594,0.4593,0.4597,0.459,0.4603,0.4602,0.4602,0.4602,0.4602,0,0.533,0.5289,0.5248,0.5185,0.5149,0.5116,0.5062,0.5034,0.4992,0.4942,0.4899,0.4842,0.4793,0.4732,0.4677,0.4658,0.4638,0.4645,0.4645,0.4637,0.4614,0.4621,0.4662,0.4662,0.4662,0.4662,0.4662,0.4662,0.5345,0.5308,0.5273,0.5214,0.5172,0.5125,0.5097,0.5056,0.5015,0.4954,0.4912,0.4873,0.4817,0.4758,0.471,0.4693,0.4675,0.4687,0.4664,0.4644,0.4639,0.4634,0.464,0.4684,0.4684,0.469,0.469,0.469]},{"header":{"parameterUnit":"m.s-1","parameterCategory":1,"la1":30.2991,"la2":30.254,"lo1":-89.0895,"lo2":-89.0444,"dy":0.0017,"dx":0.0017,"nx":28,"ny":28,"refTime":"2023-09-23T21:00:00:Z","depth":0,"parameterNumber":3,"parameterNumberName":"V-component_of_WINDS"},"data":[0,0,0,0,0,0,0,0,0,0,0,0,0,0,0,0,0,0,0,0,0,0,0,0,0,0,0,0,0,0,0,0,0,0,0,0,0,0,0,0,0,0,0,0,0,0,0,0,0,0,0,0,0,0,0,0,0,0,3.6021,3.6021,0,3.5988,3.5988,3.5988,3.591,3.5909,3.5907,3.5905,3.5872,3.5873,3.5873,0,0,0,0,0,0,0,0,0,0,0,0,0,3.6017,3.6017,3.6021,3.6021,3.602,3.5988,3.5988,3.5988,3.591,3.5909,3.5907,3.5905,3.5872,3.5873,3.5873,0,0,0,0,0,0,0,0,0,0,0,0,0,3.6005,3.6017,3.6021,3.5978,3.5974,3.5989,3.5988,3.5987,3.5911,3.5908,3.5906,3.5904,3.5872,3.5873,3.5873,3.5927,0,0,3.5876,3.5877,0,0,0,0,0,0,0,0,3.6006,3.6005,3.5985,3.5981,3.5976,3.5951,3.5974,3.5967,3.5912,3.5935,3.5905,3.5903,3.59,3.5899,3.5898,3.5926,3.5924,3.5876,3.5877,3.5877,3.5878,0,0,0,0,0,0,0,3.6006,3.6006,3.6008,3.5985,3.5979,3.596,3.5956,3.5972,3.5932,3.5933,3.5927,3.5924,3.5897,3.5897,3.5896,3.5924,3.5876,3.5877,3.5878,3.5878,3.5992,3.5994,0,0,0,0,0,0,3.6014,3.6007,3.6009,3.6007,3.5985,3.5962,3.5957,3.5962,3.5931,3.5924,3.5926,3.5921,3.5897,3.5895,3.5895,3.5954,3.5877,3.5878,3.5879,3.5989,3.5992,3.5995,0,0,0,0,0,0,3.6014,3.6014,3.601,3.6006,3.6004,3.5965,3.597,3.5962,3.5962,3.5926,3.5919,3.5933,3.5895,3.5894,3.5919,3.5951,3.5879,3.5879,3.5986,3.599,3.5994,3.6073,0,0,0,0,0,0,3.6014,3.6015,3.6035,3.6007,3.6004,3.6036,3.5972,3.5963,3.5963,3.5956,3.5931,3.5924,3.5893,3.5918,3.592,3.5951,3.588,3.5983,3.5988,3.5993,3.6067,3.6079,3.6089,0,0,0,0,0,3.6014,3.606,3.6037,3.6037,3.6029,3.6038,3.6036,3.5999,3.5966,3.5986,3.5963,3.5925,3.5948,3.5922,3.5923,3.5955,3.5981,3.5987,3.5992,3.6063,3.6077,3.6089,0,0,0,0,0,0,3.6093,3.6055,3.6029,3.6067,3.6056,3.6025,3.6048,3.6016,3.6014,3.6007,3.5961,3.5956,3.5987,3.5974,3.5945,3.6004,3.5958,3.5965,3.6011,3.6025,3.6035,3.6037,3.5881,0,0,0,0,0,3.6115,3.6126,3.6092,3.6128,3.6124,3.6088,3.609,3.6062,3.6049,3.6044,3.6023,3.6012,3.6016,3.602,3.6023,3.6066,3.6058,3.6089,3.61,3.6109,3.6114,3.6133,3.6145,3.6013,3.6013,3.6013,0,0,3.616,3.6141,3.615,3.6144,3.6132,3.6143,3.6084,3.6099,3.6107,3.6047,3.6068,3.6053,3.6037,3.6072,3.6085,3.6061,3.6149,3.6116,3.6123,3.6123,3.614,3.6153,3.6164,3.6017,3.6016,3.6016,0,0,3.6248,3.6235,3.6263,3.6252,3.6235,3.621,3.6217,3.6191,3.6178,3.6199,3.6153,3.6162,3.6172,3.6161,3.6158,3.6241,3.6205,3.6243,3.6299,3.6318,3.6329,3.6337,3.6364,3.6375,3.6249,3.6249,3.6249,0,3.6306,3.6321,3.6281,3.6298,3.6296,3.6242,3.6269,3.6261,3.6246,3.6245,3.6219,3.6228,3.6214,3.6244,3.6264,3.6264,3.6268,3.6244,3.633,3.6339,3.6347,3.6372,3.6382,3.6253,3.6253,3.6253,3.6252,0,3.6392,3.6403,3.6428,3.6413,3.6414,3.6437,3.6399,3.6405,3.6378,3.6355,3.6377,3.6359,3.6355,3.6361,3.6334,3.6386,3.6371,3.6339,3.6291,3.6364,3.6387,3.6397,3.626,3.6258,3.6257,3.6256,0,0,3.6526,3.649,3.6499,3.6491,3.6468,3.6476,3.6496,3.6492,3.6496,3.6489,3.6502,3.6511,3.648,3.6476,3.6448,3.6466,3.6529,3.643,3.6429,3.6447,3.6582,3.6605,3.6617,3.6507,3.6508,3.651,3.6583,0,3.6606,3.6636,3.6601,3.6639,3.6648,3.6597,3.6614,3.6601,3.6581,3.6586,3.6564,3.6569,3.653,3.6526,3.6542,3.6518,3.6555,3.6513,3.6517,3.6518,3.652,3.6629,3.6654,3.6723,3.6592,3.6593,3.6594,0,3.6702,3.6697,3.6736,3.6709,3.6712,3.6727,3.672,3.6726,3.671,3.6694,3.669,3.6656,3.6672,3.6628,3.6649,3.6621,3.6621,3.661,3.6611,3.6608,3.6559,3.6626,3.6745,3.6755,3.6608,3.6607,3.6606,0,3.6793,3.6797,3.6819,3.6815,3.6785,3.6797,3.6785,3.6767,3.6767,3.6761,3.676,3.6756,3.6754,3.6752,3.6717,3.6689,3.6742,3.6695,3.6727,3.6728,3.6738,3.6738,3.6856,3.6744,3.6743,3.6743,3.6743,0,3.6884,3.6909,3.6859,3.6873,3.6899,3.6859,3.6886,3.6869,3.6853,3.6862,3.6819,3.6828,3.6784,3.6789,3.6762,3.6782,3.6782,3.6769,3.6761,3.6771,3.6772,3.6768,3.6761,3.6746,3.6745,3.6745,3.6744,0,3.6988,3.6957,3.6978,3.6948,3.6941,3.6961,3.6935,3.6946,3.6924,3.6935,3.6936,3.69,3.6903,3.687,3.6866,3.6849,3.6879,3.6865,3.6884,3.6878,3.6911,3.6908,3.7029,3.7042,3.6924,3.6925,3.6926,0,3.7047,3.7065,3.7036,3.7039,3.7029,3.7035,3.7034,3.6995,3.6995,3.6979,3.6991,3.6991,3.6988,3.6995,3.6968,3.6965,3.6948,3.699,3.6947,3.6956,3.6945,3.6943,3.6943,3.6999,3.7,3.7002,3.7002,0,3.7153,3.7136,3.7137,3.7131,3.7131,3.7125,3.7116,3.7121,3.7079,3.7081,3.7083,3.7081,3.7077,3.7076,3.7068,3.7055,3.7021,3.7017,3.7023,3.7032,3.7042,3.7034,3.6906,3.7014,3.7012,3.7012,3.7011,3.7011,3.7234,3.7247,3.7228,3.723,3.7219,3.7211,3.722,3.7198,3.7199,3.7192,3.717,3.7175,3.7158,3.7143,3.7134,3.7137,3.7116,3.7127,3.7129,3.7131,3.7136,3.7044,3.7136,3.7135,3.7135,3.7135,3.7135,0,3.7336,3.7321,3.7323,3.7312,3.7312,3.7282,3.727,3.7272,3.7278,3.7265,3.7263,3.7264,3.7263,3.7237,3.7232,3.724,3.7224,3.724,3.7237,3.7234,3.7156,3.715,3.7252,3.7252,3.7252,3.7252,3.7252,3.7252,3.7388,3.7407,3.7388,3.7401,3.7386,3.7391,3.7387,3.7379,3.7369,3.7372,3.7371,3.7354,3.7335,3.7329,3.7326,3.7318,3.7317,3.7337,3.7324,3.7251,3.724,3.7229,3.7222,3.7338,3.7338,3.7401,3.7402,3.7402]}]]